Weather History for KWST - August, 2013

Change the Weather History Date:

Monday, August 19, 2013

  Actual Average (KGON) Record (KGON)
Temperature  
Mean Temperature 68 °F -  
Max Temperature 79 °F 78 °F 89 °F (1966)
Min Temperature 59 °F 60 °F 49 °F (1958)
Cooling Degree Days 3    
Growing Degree Days 18 (Base 50)    
Moisture  
Dew Point 62 °F    
Average Humidity 80    
Maximum Humidity 97    
Minimum Humidity 60    
Precipitation  
Precipitation 0.00 in - - ()
Sea Level Pressure  
Sea Level Pressure 30.05 in    
Wind  
Wind Speed 3 mph (WSW)    
Max Wind Speed 12 mph    
Max Gust Speed 17 mph    
Visibility 10 miles    
Events Rain    
Averages and records for this station are not official NWS values.
T = Trace of Precipitation, MM = Missing Value Source: NWS Daily Summary

Daily Weather History Graph

Daily Weather History Graph

Search for Another Location

Airport or City:

Trip Planner

Search our weather history database for the weather conditions in past years. The results will help you decide how hot, cold, wet, or windy it might be!

Date:

Astronomy

Aug. 19, 2013 Rise Set
Actual Time 6:00 AM EDT 7:40 PM EDT
Civil Twilight 5:31 AM EDT 8:09 PM EDT
Nautical Twilight 4:55 AM EDT 8:44 PM EDT
Astronomical Twilight 4:17 AM EDT 9:22 PM EDT
Moon 6:29 PM EDT (8/19) 4:15 AM EDT (8/19)
Length of Visible Light 14h 38m
Length of Day
13h 39m
Waxing Gibbous, 97% of the Moon is Illuminated
Aug 19
Waxing Gibbous
Aug 20
Full
Aug 28
Last Quarter
Sep 5
New
Sep 12
First Quarter

Hourly Weather History & Observations

Time (EDT) Temp. Dew Point Humidity Pressure Visibility Wind Dir Wind Speed Gust Speed Precip Events Conditions
12:53 AM 61.0 °F 60.1 °F 97% 30.11 in 10.0 mi Calm Calm - N/A   Clear
1:53 AM 60.1 °F 57.9 °F 93% 30.10 in 10.0 mi Calm Calm - N/A   Clear
2:53 AM 59.0 °F 57.0 °F 93% 30.09 in 10.0 mi Calm Calm - N/A   Clear
3:53 AM 59.0 °F 57.0 °F 93% 30.09 in 10.0 mi Calm Calm - N/A   Clear
4:53 AM 59.0 °F 57.0 °F 93% 30.09 in 10.0 mi Calm Calm - N/A   Clear
5:53 AM 59.0 °F 57.0 °F 93% 30.09 in 10.0 mi West 3.5 mph - N/A   Clear
6:53 AM 61.0 °F 57.9 °F 90% 30.09 in 10.0 mi WSW 3.5 mph - N/A   Clear
7:53 AM 64.0 °F 59.0 °F 84% 30.09 in 10.0 mi West 3.5 mph - N/A   Clear
8:53 AM 68.0 °F 60.1 °F 76% 30.08 in 10.0 mi West 4.6 mph - N/A   Clear
9:53 AM 73.9 °F 62.1 °F 66% 30.06 in 10.0 mi Variable 3.5 mph - N/A   Clear
10:53 AM 77.0 °F 63.0 °F 62% 30.05 in 10.0 mi WSW 5.8 mph - N/A   Clear
11:53 AM 77.0 °F 63.0 °F 62% 30.05 in 10.0 mi SW 8.1 mph - N/A   Partly Cloudy
12:53 PM 75.9 °F 63.0 °F 64% 30.04 in 10.0 mi SW 10.4 mph - N/A   Scattered Clouds
1:53 PM 75.0 °F 63.0 °F 66% 30.04 in 10.0 mi WSW 11.5 mph 17.3 mph N/A   Clear
2:53 PM 75.0 °F 64.0 °F 69% 30.02 in 10.0 mi WSW 6.9 mph - N/A   Clear
3:53 PM 75.0 °F 64.0 °F 69% 30.01 in 10.0 mi SW 6.9 mph - N/A   Clear
4:53 PM 75.0 °F 60.1 °F 60% 30.01 in 10.0 mi WSW 5.8 mph - N/A   Clear
5:53 PM 73.9 °F 63.0 °F 68% 30.01 in 10.0 mi WSW 5.8 mph - N/A   Clear
6:53 PM 73.0 °F 64.0 °F 73% 30.02 in 10.0 mi WSW 3.5 mph - N/A   Clear
7:53 PM 71.1 °F 64.9 °F 81% 30.01 in 10.0 mi SW 3.5 mph - N/A   Clear
8:53 PM 70.0 °F 66.0 °F 87% 30.03 in 10.0 mi Calm Calm - N/A   Clear
9:53 PM 70.0 °F 66.0 °F 87% 30.03 in 10.0 mi WSW 4.6 mph - 0.00 in Rain Light Rain
10:53 PM 69.1 °F 66.9 °F 93% 30.04 in 9.0 mi WSW 3.5 mph - 0.00 in   Mostly Cloudy
11:53 PM 69.1 °F 66.9 °F 93% 30.03 in 8.0 mi WSW 3.5 mph - N/A   Clear